| time (UTC) | temp C | wind direction | speed KPH | gust KPH | rain 1hr cm | rain 24hr cm | rain mn cm | humidity % | barometer mb |
| 20260510061605 | 8 | 274 | 0.0 | 0.0 | 0.00 | 0.76 | 0.00 | 95 | 1012.9 |
| 20260510061105 | 8 | 274 | 0.0 | 0.0 | 0.00 | 0.76 | 0.00 | 95 | 1013.1 |
| 20260510060604 | 8 | 274 | 0.0 | 0.0 | 0.00 | 0.76 | 0.00 | 95 | 1013.1 |
| 20260510060104 | 8 | 274 | 0.0 | 0.0 | 0.00 | 0.76 | 0.00 | 95 | 1013.1 |
| 20260510055104 | 8 | 274 | 0.0 | 0.0 | 0.00 | 0.76 | 0.00 | 95 | 1013.0 |
| 20260510053604 | 8 | 274 | 0.0 | 3.2 | 0.00 | 0.76 | 0.00 | 95 | 1012.8 |
| 20260510053105 | 8 | 274 | 1.6 | 3.2 | 0.00 | 0.76 | 0.00 | 95 | 1012.5 |
| 20260510052604 | 9 | 274 | 0.0 | 0.0 | 0.00 | 0.76 | 0.00 | 95 | 1012.3 |
| 20260510052105 | 9 | 274 | 0.0 | 0.0 | 0.00 | 0.76 | 0.00 | 95 | 1012.3 |
| 20260510051605 | 9 | 274 | 0.0 | 0.0 | 0.00 | 0.76 | 0.00 | 95 | 1012.3 |
| 20260510051105 | 9 | 274 | 0.0 | 0.0 | 0.00 | 0.76 | 0.00 | 95 | 1012.3 |
| 20260510050604 | 9 | 274 | 0.0 | 0.0 | 0.00 | 0.76 | 0.00 | 95 | 1012.3 |
| 20260510050104 | 9 | 274 | 0.0 | 4.8 | 0.00 | 0.76 | 0.00 | 95 | 1012.4 |
| 20260510045605 | 9 | 274 | 0.0 | 4.8 | 0.00 | 0.76 | 0.00 | 95 | 1012.5 |
| 20260510045105 | 9 | 271 | 1.6 | 8.0 | 0.00 | 0.76 | 0.00 | 95 | 1012.6 |
| 20260510044605 | 8 | 287 | 0.0 | 0.0 | 0.00 | 0.76 | 0.00 | 95 | 1012.7 |
| 20260510043604 | 8 | 287 | 0.0 | 0.0 | 0.00 | 0.76 | 0.00 | 95 | 1012.6 |
| 20260510043106 | 9 | 287 | 0.0 | 0.0 | 0.00 | 0.76 | 0.00 | 95 | 1012.5 |
| 20260510042605 | 9 | 287 | 0.0 | 0.0 | 0.00 | 0.76 | 0.00 | 95 | 1012.5 |
| 20260510042105 | 9 | 287 | 0.0 | 0.0 | 0.00 | 0.76 | 0.00 | 95 | 1012.5 |
| 20260510041105 | 9 | 287 | 0.0 | 0.0 | 0.00 | 0.76 | 0.00 | 95 | 1012.5 |
| 20260510040605 | 9 | 287 | 0.0 | 0.0 | 0.00 | 0.76 | 0.00 | 95 | 1012.4 |
| 20260510040105 | 9 | 287 | 0.0 | 0.0 | 0.00 | 0.76 | 0.00 | 95 | 1012.2 |
| 20260510035605 | 9 | 287 | 0.0 | 0.0 | 0.00 | 0.76 | 0.76 | 95 | 1012.2 |
| 20260510035105 | 9 | 287 | 0.0 | 0.0 | 0.00 | 0.76 | 0.76 | 95 | 1012.2 |
| 20260510034605 | 9 | 287 | 0.0 | 3.2 | 0.00 | 0.76 | 0.76 | 95 | 1012.2 |
| 20260510034105 | 9 | 287 | 1.6 | 4.8 | 0.00 | 0.76 | 0.76 | 95 | 1012.2 |
| 20260510033605 | 8 | 285 | 1.6 | 4.8 | 0.00 | 0.76 | 0.76 | 95 | 1012.1 |
| 20260510033104 | 8 | 281 | 0.0 | 0.0 | 0.00 | 0.76 | 0.76 | 95 | 1012.2 |
| 20260510032604 | 9 | 280 | 0.0 | 0.0 | 0.00 | 0.76 | 0.76 | 95 | 1012.2 |
| 20260510031604 | 9 | 281 | 0.0 | 0.0 | 0.00 | 0.76 | 0.76 | 94 | 1012.3 |
| 20260510031104 | 9 | 280 | 0.0 | 0.0 | 0.00 | 0.76 | 0.76 | 95 | 1012.2 |
| 20260510030105 | 9 | 280 | 0.0 | 0.0 | 0.00 | 0.76 | 0.76 | 94 | 1012.3 |
| 20260510025605 | 9 | 280 | 0.0 | 0.0 | 0.00 | 0.76 | 0.76 | 94 | 1012.3 |
| 20260510025105 | 9 | 281 | 0.0 | 0.0 | 0.00 | 0.76 | 0.76 | 95 | 1012.2 |
| 20260510024605 | 9 | 281 | 0.0 | 0.0 | 0.00 | 0.79 | 0.76 | 94 | 1012.4 |
| 20260510024106 | 9 | 281 | 0.0 | 0.0 | 0.00 | 0.79 | 0.76 | 94 | 1012.4 |
| 20260510023105 | 9 | 281 | 0.0 | 0.0 | 0.00 | 0.79 | 0.76 | 94 | 1012.6 |
| 20260510022605 | 9 | 280 | 0.0 | 0.0 | 0.00 | 0.79 | 0.76 | 94 | 1012.4 |
| 20260510022104 | 9 | 280 | 0.0 | 0.0 | 0.00 | 0.79 | 0.76 | 94 | 1012.3 |
| 20260510021604 | 9 | 281 | 0.0 | 0.0 | 0.00 | 0.79 | 0.76 | 94 | 1012.2 |
| 20260510021105 | 10 | 281 | 0.0 | 0.0 | 0.00 | 0.79 | 0.76 | 94 | 1012.1 |
| 20260510020106 | 10 | 280 | 0.0 | 0.0 | 0.00 | 0.79 | 0.76 | 94 | 1012.2 |
| 20260510015605 | 10 | 281 | 0.0 | 0.0 | 0.00 | 0.79 | 0.76 | 94 | 1012.2 |
| 20260510015104 | 10 | 281 | 0.0 | 0.0 | 0.00 | 0.79 | 0.76 | 94 | 1012.2 |
| 20260510014606 | 10 | 281 | 0.0 | 0.0 | 0.00 | 0.79 | 0.76 | 94 | 1012.2 |
| 20260510014105 | 10 | 281 | 0.0 | 0.0 | 0.00 | 0.79 | 0.76 | 94 | 1012.2 |
| 20260510013605 | 10 | 281 | 0.0 | 0.0 | 0.00 | 0.79 | 0.76 | 94 | 1012.3 |
| 20260510012605 | 10 | 281 | 0.0 | 0.0 | 0.00 | 0.79 | 0.76 | 93 | 1012.1 |
| 20260510012105 | 10 | 281 | 0.0 | 0.0 | 0.00 | 0.79 | 0.76 | 94 | 1012.1 |
| 20260510011605 | 10 | 281 | 0.0 | 0.0 | 0.00 | 0.79 | 0.76 | 93 | 1012.0 |
| 20260510010605 | 11 | 281 | 0.0 | 0.0 | 0.00 | 0.79 | 0.76 | 93 | 1011.8 |
| 20260510010106 | 11 | 281 | 0.0 | 1.6 | 0.00 | 0.79 | 0.76 | 93 | 1011.9 |
| 20260510005605 | 11 | 280 | 0.0 | 0.0 | 0.00 | 0.79 | 0.76 | 93 | 1011.8 |
| 20260510005105 | 11 | 280 | 0.0 | 0.0 | 0.00 | 0.79 | 0.76 | 93 | 1011.6 |
| 20260510004606 | 11 | 280 | 0.0 | 0.0 | 0.00 | 0.79 | 0.76 | 93 | 1011.6 |
| 20260510003605 | 11 | 280 | 1.6 | 4.8 | 0.00 | 0.79 | 0.76 | 93 | 1011.7 |
| 20260510002607 | 11 | 265 | 0.0 | 0.0 | 0.00 | 0.79 | 0.76 | 93 | 1011.5 |
| 20260510002105 | 11 | 265 | 0.0 | 0.0 | 0.00 | 0.79 | 0.76 | 93 | 1011.5 |
| 20260510001106 | 11 | 272 | 0.0 | 3.2 | 0.00 | 0.79 | 0.76 | 93 | 1011.4 |
| 20260510000605 | 12 | 214 | 0.0 | 4.8 | 0.00 | 0.79 | 0.76 | 93 | 1011.4 |
| 20260510000104 | 12 | 199 | 1.6 | 4.8 | 0.00 | 0.79 | 0.76 | 93 | 1011.4 |
| 20260509235605 | 12 | 196 | 3.2 | 8.0 | 0.00 | 0.79 | 0.76 | 93 | 1011.3 |
| 20260509235104 | 12 | 252 | 1.6 | 3.2 | 0.00 | 0.79 | 0.76 | 93 | 1011.2 |
| 20260509234606 | 12 | 198 | 1.6 | 4.8 | 0.00 | 0.79 | 0.76 | 93 | 1011.3 |
| 20260509234105 | 12 | 200 | 1.6 | 4.8 | 0.00 | 0.79 | 0.76 | 93 | 1011.2 |
| 20260509233605 | 12 | 201 | 3.2 | 8.0 | 0.00 | 0.79 | 0.76 | 93 | 1011.2 |
| 20260509233104 | 12 | 208 | 1.6 | 3.2 | 0.00 | 0.79 | 0.76 | 93 | 1011.2 |
| 20260509232605 | 12 | 209 | 3.2 | 11.3 | 0.00 | 0.79 | 0.76 | 93 | 1011.2 |
| 20260509232104 | 12 | 210 | 1.6 | 9.7 | 0.00 | 0.79 | 0.76 | 94 | 1011.1 |
| 20260509231605 | 12 | 194 | 3.2 | 9.7 | 0.00 | 0.79 | 0.76 | 94 | 1011.2 |
| 20260509231105 | 12 | 206 | 3.2 | 16.1 | 0.00 | 0.79 | 0.76 | 94 | 1011.3 |
| 20260509230604 | 12 | 201 | 6.4 | 12.9 | 0.00 | 0.79 | 0.76 | 94 | 1011.3 |
| 20260509230106 | 12 | 189 | 1.6 | 4.8 | 0.00 | 0.79 | 0.76 | 94 | 1011.3 |
| 20260509225105 | 12 | 195 | 1.6 | 14.5 | 0.00 | 0.79 | 0.76 | 94 | 1011.3 |
| 20260509224604 | 12 | 214 | 1.6 | 4.8 | 0.00 | 0.79 | 0.76 | 94 | 1011.3 |
| 20260509223605 | 12 | 220 | 1.6 | 4.8 | 0.00 | 0.79 | 0.76 | 94 | 1011.1 |
| 20260509222105 | 12 | 280 | 1.6 | 4.8 | 0.03 | 0.79 | 0.76 | 94 | 1011.1 |
| 20260509221605 | 12 | 280 | 0.0 | 0.0 | 0.03 | 0.79 | 0.76 | 94 | 1011.2 |
| 20260509221105 | 12 | 280 | 0.0 | 0.0 | 0.03 | 0.79 | 0.76 | 94 | 1011.1 |
| 20260509220604 | 12 | 280 | 0.0 | 3.2 | 0.03 | 0.79 | 0.76 | 94 | 1011.2 |
| 20260509220104 | 12 | 280 | 0.0 | 3.2 | 0.03 | 0.79 | 0.76 | 94 | 1011.2 |
| 20260509215604 | 12 | 280 | 0.0 | 0.0 | 0.05 | 0.79 | 0.76 | 94 | 1011.4 |
| 20260509215104 | 12 | 280 | 0.0 | 4.8 | 0.05 | 0.79 | 0.76 | 94 | 1011.4 |
| 20260509214605 | 12 | 286 | 1.6 | 4.8 | 0.05 | 0.79 | 0.76 | 94 | 1011.5 |
| 20260509213605 | 12 | 290 | 1.6 | 4.8 | 0.10 | 0.79 | 0.76 | 94 | 1011.7 |
| 20260509213104 | 12 | 291 | 0.0 | 3.2 | 0.13 | 0.79 | 0.76 | 94 | 1011.6 |
| 20260509212605 | 12 | 291 | 1.6 | 4.8 | 0.10 | 0.76 | 0.74 | 93 | 1011.6 |
| 20260509212104 | 12 | 291 | 0.0 | 1.6 | 0.13 | 0.76 | 0.74 | 93 | 1011.6 |
| 20260509211605 | 12 | 291 | 1.6 | 3.2 | 0.13 | 0.76 | 0.74 | 93 | 1011.7 |
| 20260509211105 | 12 | 291 | 0.0 | 1.6 | 0.15 | 0.76 | 0.74 | 93 | 1011.7 |
| 20260509205604 | 12 | 291 | 0.0 | 4.8 | 0.13 | 0.74 | 0.71 | 93 | 1011.5 |
| 20260509205105 | 12 | 291 | 0.0 | 0.0 | 0.15 | 0.74 | 0.71 | 93 | 1011.6 |
| 20260509204604 | 12 | 291 | 0.0 | 0.0 | 0.15 | 0.74 | 0.71 | 93 | 1011.6 |
| 20260509204105 | 12 | 291 | 0.0 | 0.0 | 0.15 | 0.71 | 0.69 | 93 | 1011.6 |
| 20260509203604 | 12 | 291 | 0.0 | 0.0 | 0.13 | 0.69 | 0.66 | 93 | 1011.8 |
| 20260509202605 | 12 | 291 | 0.0 | 0.0 | 0.10 | 0.66 | 0.64 | 93 | 1011.9 |
| 20260509202106 | 12 | 291 | 0.0 | 0.0 | 0.10 | 0.64 | 0.61 | 93 | 1012.0 |
| 20260509201606 | 12 | 291 | 0.0 | 1.6 | 0.10 | 0.64 | 0.61 | 93 | 1012.1 |
| 20260509201106 | 12 | 291 | 0.0 | 0.0 | 0.08 | 0.61 | 0.58 | 93 | 1012.0 |
| 20260509200605 | 12 | 291 | 0.0 | 1.6 | 0.10 | 0.61 | 0.58 | 93 | 1012.1 |
| 20260509200105 | 12 | 291 | 0.0 | 3.2 | 0.10 | 0.61 | 0.58 | 93 | 1012.1 |
| 20260509194105 | 13 | 307 | 3.2 | 9.7 | 0.13 | 0.56 | 0.53 | 92 | 1012.3 |
| 20260509193605 | 13 | 305 | 3.2 | 9.7 | 0.15 | 0.56 | 0.53 | 92 | 1012.4 |
| 20260509193104 | 13 | 277 | 3.2 | 4.8 | 0.15 | 0.56 | 0.53 | 92 | 1012.4 |
| 20260509192104 | 13 | 240 | 0.0 | 4.8 | 0.13 | 0.53 | 0.51 | 92 | 1012.8 |
| 20260509191604 | 13 | 233 | 1.6 | 3.2 | 0.15 | 0.53 | 0.51 | 92 | 1012.9 |
| 20260509191105 | 13 | 229 | 1.6 | 4.8 | 0.15 | 0.53 | 0.51 | 92 | 1012.9 |
| 20260509190605 | 13 | 277 | 4.8 | 12.9 | 0.13 | 0.51 | 0.48 | 92 | 1013.0 |
| 20260509185104 | 13 | 322 | 6.4 | 14.5 | 0.20 | 0.46 | 0.43 | 92 | 1013.3 |
| 20260509184604 | 13 | 299 | 3.2 | 8.0 | 0.18 | 0.43 | 0.41 | 92 | 1013.4 |
| 20260509184104 | 13 | 311 | 1.6 | 14.5 | 0.20 | 0.43 | 0.41 | 91 | 1013.3 |
| 20260509183104 | 13 | 299 | 6.4 | 12.9 | 0.23 | 0.41 | 0.38 | 91 | 1013.2 |
| 20260509182605 | 13 | 324 | 8.0 | 16.1 | 0.23 | 0.41 | 0.38 | 91 | 1013.1 |
| 20260509182105 | 13 | 316 | 3.2 | 9.7 | 0.23 | 0.43 | 0.38 | 91 | 1013.0 |
| 20260509181606 | 13 | 9 | 0.0 | 4.8 | 0.20 | 0.41 | 0.36 | 91 | 1012.9 |
| 20260509181104 | 13 | 205 | 1.6 | 3.2 | 0.20 | 0.41 | 0.36 | 90 | 1012.8 |
| 20260509180605 | 13 | 191 | 1.6 | 4.8 | 0.20 | 0.41 | 0.36 | 89 | 1012.8 |
| 20260509180105 | 14 | 187 | 0.0 | 1.6 | 0.15 | 0.36 | 0.30 | 89 | 1012.7 |
| 20260509175604 | 14 | 184 | 0.0 | 0.0 | 0.10 | 0.30 | 0.25 | 89 | 1012.5 |
| 20260509175104 | 14 | 184 | 0.0 | 0.0 | 0.08 | 0.28 | 0.23 | 89 | 1012.3 |
| 20260509174604 | 14 | 184 | 0.0 | 0.0 | 0.08 | 0.28 | 0.23 | 88 | 1012.4 |
| 20260509174105 | 14 | 184 | 0.0 | 0.0 | 0.05 | 0.25 | 0.20 | 88 | 1012.3 |
| 20260509173105 | 14 | 184 | 0.0 | 0.0 | 0.00 | 0.20 | 0.15 | 88 | 1012.2 |
| 20260509172605 | 14 | 184 | 0.0 | 0.0 | 0.00 | 0.20 | 0.15 | 88 | 1012.2 |
| 20260509172106 | 14 | 184 | 0.0 | 1.6 | 0.00 | 0.20 | 0.15 | 88 | 1012.2 |
| 20260509171606 | 13 | 184 | 1.6 | 4.8 | 0.00 | 0.20 | 0.15 | 88 | 1012.3 |
| 20260509171105 | 13 | 184 | 1.6 | 4.8 | 0.00 | 0.20 | 0.15 | 89 | 1012.5 |
| 20260509170604 | 13 | 184 | 0.0 | 3.2 | 0.00 | 0.20 | 0.15 | 89 | 1012.5 |
| 20260509170104 | 13 | 184 | 3.2 | 8.0 | 0.00 | 0.20 | 0.15 | 90 | 1012.5 |
| 20260509165604 | 13 | 134 | 1.6 | 4.8 | 0.00 | 0.20 | 0.15 | 90 | 1012.6 |
| 20260509165105 | 13 | 134 | 3.2 | 9.7 | 0.03 | 0.20 | 0.15 | 90 | 1012.7 |
| 20260509164604 | 13 | 136 | 0.0 | 4.8 | 0.03 | 0.20 | 0.15 | 91 | 1012.7 |
| 20260509164105 | 13 | 140 | 3.2 | 8.0 | 0.03 | 0.20 | 0.15 | 91 | 1012.8 |
| 20260509163605 | 13 | 201 | 1.6 | 8.0 | 0.03 | 0.20 | 0.15 | 91 | 1013.0 |
| 20260509163105 | 13 | 201 | 4.8 | 9.7 | 0.03 | 0.20 | 0.15 | 91 | 1012.9 |
| 20260509162105 | 13 | 160 | 1.6 | 4.8 | 0.05 | 0.20 | 0.15 | 90 | 1012.9 |
| 20260509161604 | 13 | 138 | 1.6 | 4.8 | 0.05 | 0.20 | 0.15 | 90 | 1013.0 |
| 20260509161105 | 13 | 138 | 1.6 | 4.8 | 0.05 | 0.20 | 0.15 | 90 | 1013.2 |
| 20260509160604 | 12 | 138 | 0.0 | 1.6 | 0.05 | 0.20 | 0.15 | 90 | 1013.3 |
| 20260509160105 | 12 | 138 | 0.0 | 0.0 | 0.05 | 0.20 | 0.15 | 90 | 1013.4 |
| 20260509155105 | 12 | 138 | 1.6 | 3.2 | 0.03 | 0.18 | 0.13 | 90 | 1013.6 |
| 20260509154604 | 12 | 138 | 0.0 | 1.6 | 0.03 | 0.18 | 0.13 | 89 | 1013.7 |
| 20260509154105 | 12 | 138 | 0.0 | 4.8 | 0.03 | 0.18 | 0.13 | 90 | 1013.8 |
| 20260509153605 | 12 | 138 | 1.6 | 4.8 | 0.03 | 0.18 | 0.13 | 90 | 1013.8 |
| 20260509153105 | 12 | 141 | 0.0 | 1.6 | 0.03 | 0.18 | 0.13 | 89 | 1013.8 |
| 20260509152604 | 12 | 141 | 1.6 | 3.2 | 0.03 | 0.18 | 0.13 | 89 | 1014.0 |
| 20260509152106 | 12 | 141 | 1.6 | 4.8 | 0.00 | 0.15 | 0.10 | 89 | 1013.8 |
| 20260509151106 | 12 | 165 | 1.6 | 4.8 | 0.00 | 0.15 | 0.10 | 89 | 1013.8 |
| 20260509150605 | 12 | 161 | 1.6 | 4.8 | 0.00 | 0.15 | 0.10 | 89 | 1013.8 |
| 20260509150105 | 12 | 189 | 6.4 | 14.5 | 0.00 | 0.15 | 0.10 | 89 | 1013.6 |
| 20260509145606 | 12 | 144 | 3.2 | 11.3 | 0.00 | 0.15 | 0.10 | 89 | 1013.6 |
| 20260509144605 | 12 | 134 | 3.2 | 4.8 | 0.00 | 0.15 | 0.10 | 89 | 1013.6 |
| 20260509144106 | 12 | 134 | 0.0 | 4.8 | 0.00 | 0.15 | 0.10 | 89 | 1013.5 |
| 20260509142604 | 12 | 188 | 1.6 | 3.2 | 0.00 | 0.15 | 0.10 | 89 | 1013.5 |
| 20260509142104 | 12 | 188 | 3.2 | 8.0 | 0.00 | 0.15 | 0.10 | 90 | 1013.5 |
| 20260509141605 | 12 | 168 | 1.6 | 8.0 | 0.00 | 0.15 | 0.10 | 90 | 1013.5 |
| 20260509141104 | 12 | 195 | 1.6 | 9.7 | 0.00 | 0.15 | 0.10 | 90 | 1013.5 |
| 20260509140606 | 12 | 139 | 3.2 | 11.3 | 0.00 | 0.15 | 0.10 | 90 | 1013.6 |
| 20260509140105 | 11 | 201 | 6.4 | 11.3 | 0.00 | 0.15 | 0.10 | 90 | 1013.6 |
| 20260509135604 | 11 | 151 | 1.6 | 4.8 | 0.00 | 0.15 | 0.10 | 90 | 1013.6 |
| 20260509135104 | 11 | 180 | 3.2 | 4.8 | 0.00 | 0.15 | 0.10 | 91 | 1013.6 |
| 20260509134604 | 11 | 179 | 1.6 | 4.8 | 0.00 | 0.15 | 0.10 | 90 | 1013.8 |
| 20260509133604 | 11 | 179 | 3.2 | 4.8 | 0.00 | 0.15 | 0.10 | 90 | 1013.8 |
| 20260509133104 | 11 | 176 | 1.6 | 4.8 | 0.00 | 0.15 | 0.10 | 91 | 1013.7 |
| 20260509132604 | 11 | 176 | 0.0 | 1.6 | 0.00 | 0.15 | 0.10 | 91 | 1013.7 |
| 20260509132105 | 11 | 176 | 1.6 | 3.2 | 0.00 | 0.15 | 0.10 | 91 | 1013.8 |
| 20260509131604 | 11 | 176 | 1.6 | 3.2 | 0.00 | 0.15 | 0.10 | 92 | 1013.9 |
| 20260509131104 | 11 | 176 | 0.0 | 3.2 | 0.00 | 0.15 | 0.10 | 92 | 1014.0 |
| 20260509130604 | 10 | 181 | 0.0 | 4.8 | 0.00 | 0.15 | 0.10 | 92 | 1014.0 |
| 20260509130104 | 10 | 184 | 3.2 | 8.0 | 0.00 | 0.15 | 0.10 | 92 | 1014.1 |
| 20260509125605 | 10 | 126 | 0.0 | 0.0 | 0.00 | 0.15 | 0.10 | 92 | 1014.2 |
| 20260509124604 | 10 | 125 | 1.6 | 11.3 | 0.00 | 0.15 | 0.10 | 92 | 1014.0 |
| 20260509124104 | 10 | 90 | 1.6 | 4.8 | 0.00 | 0.15 | 0.10 | 92 | 1013.8 |
| 20260509123104 | 9 | 72 | 1.6 | 4.8 | 0.00 | 0.15 | 0.10 | 93 | 1013.7 |
| 20260509122605 | 9 | 67 | 3.2 | 8.0 | 0.00 | 0.15 | 0.10 | 93 | 1013.7 |
| 20260509122105 | 9 | 91 | 3.2 | 4.8 | 0.00 | 0.15 | 0.10 | 93 | 1013.8 |
| 20260509121604 | 8 | 92 | 1.6 | 4.8 | 0.00 | 0.15 | 0.10 | 92 | 1013.9 |
| 20260509121105 | 8 | 92 | 1.6 | 3.2 | 0.00 | 0.15 | 0.10 | 92 | 1014.0 |
| 20260509120604 | 8 | 92 | 0.0 | 3.2 | 0.00 | 0.15 | 0.10 | 93 | 1014.1 |
| 20260509120105 | 8 | 92 | 0.0 | 0.0 | 0.00 | 0.15 | 0.10 | 92 | 1014.3 |
| 20260509115604 | 8 | 92 | 0.0 | 1.6 | 0.00 | 0.15 | 0.10 | 92 | 1014.4 |
| 20260509115105 | 8 | 92 | 0.0 | 4.8 | 0.00 | 0.15 | 0.10 | 92 | 1014.4 |
| 20260509114604 | 8 | 92 | 3.2 | 4.8 | 0.00 | 0.15 | 0.10 | 92 | 1014.4 |
| 20260509114105 | 8 | 91 | 1.6 | 4.8 | 0.00 | 0.15 | 0.10 | 92 | 1014.3 |
| 20260509113604 | 8 | 91 | 0.0 | 3.2 | 0.00 | 0.15 | 0.10 | 92 | 1014.4 |
| 20260509113105 | 8 | 91 | 0.0 | 1.6 | 0.00 | 0.15 | 0.10 | 93 | 1014.4 |
| 20260509112606 | 8 | 91 | 0.0 | 1.6 | 0.00 | 0.15 | 0.10 | 93 | 1014.4 |
| 20260509112104 | 8 | 92 | 3.2 | 4.8 | 0.00 | 0.15 | 0.10 | 93 | 1014.4 |
| 20260509111104 | 8 | 92 | 0.0 | 3.2 | 0.00 | 0.15 | 0.10 | 92 | 1014.3 |
| 20260509110605 | 8 | 92 | 0.0 | 0.0 | 0.00 | 0.15 | 0.10 | 92 | 1014.2 |
| 20260509110104 | 8 | 92 | 0.0 | 0.0 | 0.00 | 0.15 | 0.10 | 93 | 1014.2 |
| 20260509105104 | 8 | 92 | 1.6 | 4.8 | 0.00 | 0.15 | 0.10 | 92 | 1014.2 |
| 20260509104605 | 8 | 92 | 1.6 | 4.8 | 0.00 | 0.15 | 0.10 | 93 | 1014.0 |
| 20260509104108 | 8 | 92 | 3.2 | 4.8 | 0.00 | 0.15 | 0.10 | 93 | 1014.1 |
| 20260509103605 | 8 | 92 | 0.0 | 3.2 | 0.00 | 0.15 | 0.10 | 92 | 1014.2 |
| 20260509103106 | 8 | 92 | 3.2 | 4.8 | 0.00 | 0.15 | 0.10 | 93 | 1014.2 |
| 20260509102606 | 8 | 99 | 1.6 | 8.0 | 0.00 | 0.15 | 0.10 | 92 | 1014.1 |
| 20260509101605 | 8 | 104 | 3.2 | 4.8 | 0.00 | 0.15 | 0.10 | 92 | 1014.2 |
| 20260509101104 | 8 | 113 | 0.0 | 8.0 | 0.00 | 0.15 | 0.10 | 93 | 1014.1 |
| 20260509100606 | 8 | 91 | 4.8 | 9.7 | 0.00 | 0.15 | 0.10 | 92 | 1014.2 |
| 20260509100104 | 8 | 125 | 1.6 | 8.0 | 0.00 | 0.15 | 0.10 | 92 | 1014.2 |
| 20260509095604 | 8 | 111 | 1.6 | 4.8 | 0.00 | 0.15 | 0.10 | 92 | 1014.3 |
| 20260509095104 | 8 | 111 | 1.6 | 4.8 | 0.00 | 0.15 | 0.10 | 92 | 1014.3 |
| 20260509094606 | 8 | 112 | 3.2 | 4.8 | 0.00 | 0.15 | 0.10 | 92 | 1014.4 |
| 20260509094104 | 8 | 113 | 3.2 | 8.0 | 0.00 | 0.15 | 0.10 | 92 | 1014.3 |
| 20260509093605 | 8 | 127 | 3.2 | 8.0 | 0.00 | 0.15 | 0.10 | 92 | 1014.2 |
| 20260509093104 | 8 | 127 | 3.2 | 4.8 | 0.00 | 0.15 | 0.10 | 92 | 1014.3 |
| 20260509092604 | 8 | 78 | 1.6 | 4.8 | 0.00 | 0.15 | 0.10 | 92 | 1014.2 |
| 20260509092104 | 8 | 76 | 0.0 | 0.0 | 0.00 | 0.15 | 0.10 | 92 | 1014.3 |
| 20260509091106 | 8 | 100 | 1.6 | 3.2 | 0.00 | 0.15 | 0.10 | 92 | 1014.4 |
| 20260509090106 | 9 | 99 | 3.2 | 4.8 | 0.00 | 0.15 | 0.10 | 92 | 1014.4 |
| 20260509085604 | 9 | 101 | 1.6 | 4.8 | 0.00 | 0.15 | 0.10 | 92 | 1014.4 |
| 20260509085104 | 9 | 98 | 1.6 | 3.2 | 0.03 | 0.15 | 0.10 | 92 | 1014.4 |
| 20260509084604 | 9 | 98 | 3.2 | 4.8 | 0.03 | 0.15 | 0.10 | 92 | 1014.4 |
| 20260509084104 | 9 | 95 | 0.0 | 3.2 | 0.03 | 0.15 | 0.10 | 92 | 1014.4 |
| 20260509083604 | 10 | 95 | 1.6 | 4.8 | 0.03 | 0.15 | 0.10 | 92 | 1014.4 |
| 20260509083104 | 10 | 95 | 0.0 | 0.0 | 0.03 | 0.15 | 0.10 | 92 | 1014.3 |
| 20260509082604 | 10 | 95 | 0.0 | 0.0 | 0.03 | 0.15 | 0.10 | 91 | 1014.4 |
| 20260509082105 | 10 | 95 | 1.6 | 3.2 | 0.05 | 0.15 | 0.10 | 91 | 1014.4 |
| 20260509081604 | 10 | 95 | 0.0 | 0.0 | 0.05 | 0.15 | 0.10 | 91 | 1014.3 |
| 20260509081104 | 10 | 95 | 0.0 | 0.0 | 0.05 | 0.15 | 0.10 | 91 | 1014.3 |
| 20260509080104 | 10 | 95 | 0.0 | 0.0 | 0.10 | 0.15 | 0.10 | 91 | 1014.2 |
| 20260509075105 | 10 | 95 | 0.0 | 0.0 | 0.08 | 0.13 | 0.08 | 90 | 1014.2 |
| 20260509072604 | 10 | 95 | 1.6 | 3.2 | 0.08 | 0.13 | 0.08 | 89 | 1013.9 |
| 20260509072105 | 10 | 95 | 3.2 | 4.8 | 0.05 | 0.10 | 0.05 | 89 | 1013.8 |
| 20260509071605 | 10 | 95 | 1.6 | 1.6 | 0.05 | 0.10 | 0.05 | 89 | 1013.9 |
| 20260509070604 | 10 | 95 | 0.0 | 0.0 | 0.00 | 0.05 | 0.00 | 88 | 1014.1 |
| 20260509070104 | 10 | 95 | 0.0 | 0.0 | 0.00 | 0.05 | 0.00 | 88 | 1014.1 |
| 20260509065604 | 10 | 95 | 0.0 | 0.0 | 0.00 | 0.05 | 0.00 | 88 | 1014.1 |
| 20260509065105 | 10 | 95 | 0.0 | 0.0 | 0.00 | 0.05 | 0.00 | 88 | 1014.0 |
| 20260509064604 | 10 | 95 | 0.0 | 0.0 | 0.00 | 0.05 | 0.00 | 88 | 1014.1 |
| 20260509064104 | 10 | 95 | 0.0 | 0.0 | 0.00 | 0.05 | 0.00 | 88 | 1014.2 |
| 20260509062106 | 10 | 97 | 0.0 | 3.2 | 0.00 | 0.05 | 0.00 | 88 | 1014.0 |